This is the latest recevied weather packets stored in our database for station/object CA3DPI. If no packets are shown the sender has not sent any weather packets the latest 10 day(s).
| Time | Temp. | Humidity | Pressure | Rain* | Wind** | Luminosity | Snow |
|---|---|---|---|---|---|---|---|
| 1777424711 | 20° C | 44% | 1020.3 hPa | - | - | - | - |
| 1777424111 | 20° C | 45% | 1020.2 hPa | - | - | - | - |
| 1777423511 | 20° C | 44% | 1020.5 hPa | - | - | - | - |
| 1777422911 | 20.56° C | 45% | 1020.6 hPa | - | - | - | - |
| 1777422311 | 20.56° C | 45% | 1020.7 hPa | - | - | - | - |
| 1777421709 | 20.56° C | 45% | 1020.7 hPa | - | - | - | - |
| 1777421109 | 21.11° C | 44% | 1020.6 hPa | - | - | - | - |
| 1777420509 | 21.11° C | 43% | 1020.5 hPa | - | - | - | - |
| 1777419909 | 21.11° C | 43% | 1020.6 hPa | - | - | - | - |
| 1777419309 | 20.56° C | 43% | 1020.6 hPa | - | - | - | - |
| 1777418709 | 21.11° C | 44% | 1020.6 hPa | - | - | - | - |
| 1777418109 | 21.11° C | 42% | 1020.5 hPa | - | - | - | - |
| 1777417509 | 21.11° C | 44% | 1020.6 hPa | - | - | - | - |
| 1777416908 | 21.67° C | 43% | 1020.4 hPa | - | - | - | - |
| 1777416317 | 21.67° C | 43% | 1020.5 hPa | - | - | - | - |
| 1777415717 | 21.67° C | 43% | 1020.3 hPa | - | - | - | - |
| 1777415116 | 21.67° C | 42% | 1020.1 hPa | - | - | - | - |
| 1777414516 | 22.22° C | 43% | 1020 hPa | - | - | - | - |
| 1777413916 | 22.78° C | 40% | 1019.9 hPa | - | - | - | - |
| 1777413315 | 23.89° C | 39% | 1019.9 hPa | - | - | - | - |
| 1777412714 | 25° C | 37% | 1019.7 hPa | - | - | - | - |
| 1777412114 | 25.56° C | 35% | 1019.5 hPa | - | - | - | - |
| 1777411513 | 26.11° C | 35% | 1019.3 hPa | - | - | - | - |
| 1777410912 | 27.78° C | 34% | 1019.3 hPa | - | - | - | - |
| 1777410312 | 28.33° C | 33% | 1019.2 hPa | - | - | - | - |
* Rain since midnight (hover to see other rain measurements)
** Current wind speed in m/s (hover to see current wind gust speed)